Home   Weather   Chatham-Kent   Past weeks

Flag for Canada Past Weather in Chatham-Kent, Ontario, Canada — Yesterday and Last 2 Weeks

Now
61 °F

Passing clouds.


Feels Like: 61 °F
Forecast: 44 / 53 °F
Wind: 12 mph from Northeast

Location: Windsor Weather Station

Current Time: Apr 24, 2017 at 1:18:35 pm

Latest Report: Apr 24, 2017 at 12:00 pm


Visibility: 15 mi

Pressure: 30.08 "Hg

Humidity: 59%

Dew Point: 46 °F

Location of Chatham-KentLocation

Past Weather in Chatham-Kent — Graph

°F

Chatham-Kent Temperature Yesterday

Maximum temperature yesterday: 64 °F (at 3:00 pm)
Minimum temperature yesterday: 34 °F (at 5:00 am)
Average temperature yesterday: 51 °F

High & Low Weather Summary for the Past Weeks

 TemperatureHumidityPressure
High81 °F (Apr 15, 3:00 pm)100% (Apr 11, 3:02 am)30.50 "Hg (Apr 11, 3:02 am)
Low34 °F (Apr 23, 5:00 am)30% (Apr 23, 3:00 pm)29.78 "Hg (Apr 20, 9:00 pm)
Average55 °F69%30.09 "Hg
* Reported Apr 9 12:00 pm — Apr 24 12:00 pm, Chatham-Kent, Weather by CustomWeather, © 2017

Note: Actual official high and low records may vary slightly from our data, if they occured in-between our weather recording intervals... More about our weather records

Advertising

Chatham-Kent Weather History for the Previous 24 Hours

Scroll right to see more
 ConditionsComfort  
Time TempWeatherWind HumidityBarometerVisibility
12:00 pm
Mon, Apr 24
61 °FPassing clouds.12 mph59%30.08 "Hg15 mi
11:00 am55 °FPassing clouds.9 mph67%30.09 "Hg15 mi
10:00 am52 °FPassing clouds.9 mph77%30.09 "Hg15 mi
9:00 am48 °FPassing clouds.8 mph82%30.09 "Hg15 mi
8:00 am45 °FPassing clouds.10 mph87%30.09 "Hg15 mi
7:00 am41 °FPassing clouds.8 mph93%30.08 "Hg15 mi
6:00 am41 °FPassing clouds.8 mph93%30.07 "Hg15 mi
5:00 am41 °FPassing clouds.6 mph87%30.07 "Hg15 mi
4:00 am43 °FPassing clouds.10 mph93%30.07 "Hg15 mi
3:00 am43 °FClear.12 mph87%30.06 "Hg15 mi
2:00 am43 °FClear.10 mph93%30.07 "Hg7 mi
1:00 am45 °FClear.10 mph93%30.08 "Hg7 mi
12:00 am48 °FPassing clouds.3 mph58%30.08 "Hg15 mi
11:00 pm
Sun, Apr 23
48 °FPassing clouds.6 mph71%30.09 "Hg15 mi
10:00 pm52 °FPassing clouds.6 mph62%30.08 "Hg15 mi
9:00 pm55 °FPassing clouds.2 mph55%30.05 "Hg15 mi
8:00 pm61 °FScattered clouds.2 mph34%30.05 "Hg15 mi
7:00 pm63 °FScattered clouds.6 mph32%30.06 "Hg15 mi
6:00 pm64 °FPartly sunny.10 mph40%30.06 "Hg15 mi
5:00 pm64 °FScattered clouds.12 mph43%30.06 "Hg15 mi
4:00 pm64 °FScattered clouds.16 mph46%30.07 "Hg15 mi
3:00 pm64 °FPassing clouds.3 mph30%30.07 "Hg15 mi
2:00 pm63 °FPassing clouds.6 mph32%30.08 "Hg15 mi
1:00 pm61 °FPassing clouds.2 mph39%30.10 "Hg15 mi
Weather by CustomWeather, © 2017

See weather overviewHow to use our weather pages